Flag for Russia Weather past 2 weeks in Yuzhno-Sakhalinsk, Russia

Now
61 °F

Clear.


Feels Like: 61 °F
Forecast: 38 / 68 °F
Wind: 1 mph from South

Location: Yuzhno Airport-Sakhalinsk

Current Time: May 27, 2015 at 8:03:53 PM

Latest Report: May 27, 2015 at 7:30 PM


Visibility: N/A

Pressure: 29.80 "Hg

Humidity: 39%

Dew point: 36 °F

Location of Yuzhno-SakhalinskLocation

Historic Weather in Yuzhno-Sakhalinsk — Graph

°F

Yuzhno-Sakhalinsk temperature yesterday

Maximum temperature yesterday: 61 °F (at 12:30 PM)
Minimum temperature yesterday: 37 °F (at 11:00 PM)
Average temperature yesterday: 49 °F

Past Weeks' High & Low Weather Summary

 TemperatureHumidityPressure
High73 °F (May 27, 3:30 PM)100% (May 13, 12:00 AM)30.04 "Hg (May 13, 12:00 AM)
Low28 °F (May 15, 1:00 AM)25% (May 27, 4:00 PM)29.36 "Hg (May 17, 7:00 AM)
Average45 °F78%29.68 "Hg
* Reported May 12 7:00 PM — May 27 7:00 PM, Yuzhno-Sakhalinsk, Weather by CustomWeather, © 2015

Note: Actual official high and low records may vary slightly from our data, if they occured in-between our weather recording intervals... More about our weather records

Advertising

Yuzhno-Sakhalinsk weather history for previous 24 hours

 ConditionsComfort  
Time TempWeatherWind HumidityBarometerVisibility
7:00 PM
Wed, May 27
63 °FClear.8 mph37%29.80 "HgN/A
6:30 PM64 °FClear.6 mph34%29.77 "HgN/A
6:00 PM64 °FClear.10 mph34%29.77 "HgN/A
5:30 PM66 °FClear.8 mph35%29.77 "HgN/A
5:00 PM70 °FClear.8 mph33%29.74 "HgN/A
4:30 PM73 °FClear.6 mph29%29.74 "HgN/A
4:00 PM73 °FClear.6 mph25%29.74 "HgN/A
3:30 PM73 °FClear.17 mph27%29.74 "HgN/A
3:00 PM72 °FClear.17 mph27%29.74 "HgN/A
2:30 PM72 °FClear.8 mph29%29.74 "HgN/A
1:30 PM72 °FClear.10 mph29%29.74 "HgN/A
12:30 PM70 °FClear.13 mph29%29.74 "HgN/A
12:00 PM70 °FClear.17 mph29%29.74 "HgN/A
11:30 AM68 °FClear.10 mph28%29.74 "HgN/A
11:00 AM66 °FClear.8 mph30%29.74 "HgN/A
10:30 AM64 °FClear.1 mph37%29.77 "HgN/A
10:00 AM63 °FClear.1 mph45%29.77 "HgN/A
9:30 AM57 °FClear.1 mph59%29.77 "HgN/A
9:00 AM52 °FClear.1 mph88%29.80 "HgN/A
8:30 AM48 °FPassing clouds.1 mph100%29.80 "HgN/A
8:00 AM45 °FBroken clouds.1 mph100%29.80 "HgN/A
7:30 AM41 °FFog.3 mph100%29.80 "Hg1 mi
6:30 AM37 °FFog.No wind100%29.80 "Hg0 mi
6:00 AM37 °FFog.1 mph100%29.80 "Hg0 mi
5:30 AM37 °FFog.No wind100%29.80 "Hg0 mi
5:00 AM37 °FFog.No wind100%29.80 "Hg0 mi
4:00 AM39 °FFog.1 mph100%29.80 "Hg0 mi
3:00 AM41 °FFog.1 mph100%29.80 "Hg0 mi
2:00 AM41 °FFog.No wind100%29.80 "Hg0 mi
1:00 AM43 °FFog.1 mph100%29.80 "Hg0 mi
12:00 AM41 °FFog.1 mph100%29.80 "Hg1 mi
11:00 PM
Tue, May 26
37 °FClear.No wind93%29.80 "HgN/A
10:00 PM39 °FClear.No wind100%29.80 "HgN/A
9:30 PM43 °FClear.3 mph93%29.80 "HgN/A
9:00 PM45 °FClear.3 mph93%29.80 "HgN/A
8:30 PM46 °FClear.1 mph87%29.80 "HgN/A
8:00 PM48 °FClear.1 mph82%29.80 "HgN/A
Weather by CustomWeather, © 2015

See weather overviewHow to use our weather pages